GFSSE_925_thetae_000.txt.gz
Theta_e
342 340 340 341 341 340 339 337 335 334 334 332 332 332 330 329 329 329 329 328 326 328 335 329 324 325 327 329 329 330 329 330 334 332 327 325 327 325 326 326 334 330 331
341 340 340 340 340 340 338 337 336 335 334 334 333 332 331 331 332 331 330 325 321 319 320 320 327 325 325 326 327 327 328 329 329 330 329 325 328 328 325 325 325 327 331
341 340 339 340 339 338 338 337 337 337 337 335 334 333 333 333 331 327 322 320 314 312 313 314 316 319 322 324 325 326 327 328 329 328 327 326 329 331 328 325 324 324 328
340 340 339 338 338 337 338 338 337 337 336 334 333 333 332 329 324 321 319 314 308 310 311 312 313 314 317 318 318 319 322 325 327 329 327 327 329 331 327 325 325 324 326
340 340 339 339 338 337 336 335 334 333 334 335 332 328 326 323 320 319 318 312 309 310 311 311 311 310 310 310 310 313 318 322 324 327 327 328 328 327 328 324 325 323 328
340 339 340 340 339 337 335 333 332 334 333 330 325 323 321 321 320 319 318 312 308 308 309 309 309 308 308 308 307 307 310 313 323 326 328 329 329 328 321 322 323 324 329
341 339 341 341 340 339 338 338 335 331 328 324 321 321 321 319 317 317 315 310 307 308 308 308 308 308 307 307 306 306 307 311 316 323 328 330 328 327 327 321 325 324 327
343 341 341 341 339 337 335 331 327 324 322 320 320 319 317 317 314 312 311 312 311 307 309 311 311 309 308 307 308 314 314 313 315 322 328 329 329 327 327 323 326 325 325
338 337 336 333 331 328 326 323 321 320 319 319 318 317 320 321 319 317 318 320 319 319 318 316 317 317 315 314 315 315 315 316 318 323 326 328 328 327 327 325 326 326 326
325 324 324 323 320 320 321 320 318 317 318 319 318 325 325 324 322 323 323 322 320 321 319 319 319 319 318 317 317 315 314 315 318 322 323 324 326 325 324 325 325 325 326
325 324 329 328 323 316 317 317 317 318 322 324 327 328 327 323 324 325 325 324 322 322 321 320 320 319 319 318 317 315 309 313 316 318 319 321 325 323 321 320 322 325 325
332 330 332 330 326 323 322 318 325 325 327 327 329 329 327 326 326 326 326 323 321 321 319 320 320 320 319 318 317 315 311 308 310 314 317 315 319 321 318 316 314 321 324
333 332 332 329 329 327 326 326 328 328 328 327 328 327 327 327 327 323 323 318 317 317 317 318 319 319 318 318 318 316 314 311 309 309 312 315 313 319 317 313 309 312 322
332 331 329 327 329 329 327 327 328 329 330 329 328 327 326 326 323 320 319 318 318 318 318 317 317 317 317 318 318 318 317 315 313 311 309 309 311 310 311 312 310 308 312
331 330 329 327 329 327 325 327 328 328 329 329 328 327 322 323 321 320 320 320 319 320 320 319 318 318 318 318 318 318 318 318 316 314 312 311 309 309 309 309 311 311 310
331 331 330 324 326 327 328 327 327 326 325 327 326 324 319 319 321 321 321 319 317 318 318 318 319 318 317 318 319 319 319 319 317 315 313 311 310 310 310 309 310 310 309
331 332 329 330 331 326 329 328 327 321 323 324 323 321 321 321 321 319 315 313 313 314 316 316 316 317 316 313 311 311 312 314 316 317 315 313 311 310 310 310 310 309 308
332 332 331 325 324 328 328 327 328 320 321 320 321 318 316 316 316 315 314 314 312 312 313 314 313 312 311 311 310 310 309 311 313 314 313 316 315 311 310 310 310 310 309
332 332 331 325 329 325 326 324 321 320 320 317 316 314 313 314 313 312 312 312 311 312 312 311 310 308 307 307 307 306 305 305 306 308 311 313 314 313 311 311 310 310 310
332 331 331 326 326 326 323 322 319 316 314 313 313 313 312 311 311 311 311 310 311 311 310 308 307 306 305 306 305 305 304 304 306 311 310 310 311 312 311 310 310 310 310
327 326 327 327 325 318 315 316 314 313 313 312 311 311 311 311 311 310 309 309 308 308 306 305 305 305 304 304 304 304 304 303 305 305 308 307 304 305 306 307 310 308 308
315 314 315 315 315 315 315 314 313 312 312 312 312 312 311 309 307 307 306 305 305 305 305 304 303 304 305 305 306 306 303 304 304 305 306 304 301 300 299 299 302 304 307
313 314 313 313 313 312 312 312 311 311 312 312 311 310 309 307 305 304 303 302 302 302 302 302 302 302 304 305 306 305 303 302 301 304 302 302 300 299 298 298 298 298 299
313 313 313 313 312 312 312 311 311 311 311 308 306 307 307 304 303 302 301 301 301 301 301 301 301 301 301 303 303 303 302 301 301 301 300 300 299 297 297 297 295 296 298
314 314 313 313 312 312 311 311 311 310 306 306 307 305 304 302 301 300 300 300 301 300 300 299 300 301 300 301 300 300 299 299 299 298 297 296 296 296 296 296 295 297 298
314 314 313 313 313 311 311 310 310 307 306 306 303 302 301 301 300 300 300 300 299 299 298 297 297 297 296 296 296 297 297 298 297 297 296 296 295 296 296 295 295 294 297

GFSSE_925_thetae_003.txt.gz
Theta_e
340 341 341 341 340 338 336 335 335 333 332 332 331 330 330 330 331 330 328 324 322 321 318 321 323 322 323 323 325 328 328 331 333 331 328 324 323 327 327 326 331 329 330
340 341 341 341 339 338 337 336 335 333 333 333 331 330 331 332 331 326 322 319 315 313 318 317 324 322 323 324 325 325 326 328 329 329 329 327 327 328 329 324 326 327 329
340 340 341 341 340 338 337 335 335 335 335 333 331 332 332 329 324 320 317 312 308 311 311 310 312 316 318 319 321 323 324 325 328 328 327 327 327 329 330 328 324 323 327
340 340 340 340 339 338 337 336 337 336 335 333 332 331 327 322 319 318 316 310 309 309 310 309 310 310 311 312 314 317 319 322 325 327 328 327 326 326 327 327 325 323 324
340 339 339 338 337 337 337 337 337 336 334 333 331 326 321 319 318 318 316 309 308 309 309 309 309 309 309 309 310 312 314 319 323 325 326 327 328 328 327 326 324 323 322
339 339 338 337 337 337 336 336 335 333 333 328 323 320 319 319 317 317 315 308 307 308 308 307 307 307 307 307 307 307 308 312 318 325 327 328 328 328 328 323 323 324 324
340 339 339 338 336 335 333 333 334 332 328 322 319 318 318 316 315 314 308 307 306 306 307 309 310 308 307 307 307 313 314 314 314 318 323 328 329 328 328 327 322 325 325
340 341 340 339 337 336 336 333 329 326 323 319 317 317 316 315 313 312 315 316 313 315 315 316 315 315 313 312 314 313 314 315 316 319 323 328 328 328 327 326 325 324 325
344 340 340 339 337 334 330 327 324 322 318 317 317 316 320 318 317 318 320 318 318 317 317 317 316 315 315 315 314 312 309 313 316 318 321 322 325 326 325 324 324 324 326
341 340 337 332 330 328 326 322 320 318 317 318 318 321 323 322 322 322 322 320 319 319 318 318 317 316 316 316 315 314 310 307 312 318 319 319 319 325 326 322 320 320 321
334 328 323 323 322 322 322 319 317 317 318 319 325 325 324 323 324 324 324 323 321 319 318 318 319 318 316 316 316 316 314 311 310 308 311 316 317 320 326 326 319 315 320
330 327 323 322 317 319 317 316 318 322 323 326 328 327 325 325 325 325 324 322 321 319 318 318 319 319 318 317 317 317 316 316 314 313 311 309 314 315 319 323 319 314 309
326 328 327 325 319 319 316 321 323 325 327 325 327 326 325 326 326 323 321 318 317 318 317 317 317 319 318 318 317 317 317 317 316 315 314 313 311 311 311 315 314 312 312
329 330 330 327 324 324 322 325 326 327 327 327 326 324 324 325 323 319 319 318 318 318 319 320 318 318 318 318 318 318 318 318 317 316 315 314 313 312 309 311 318 317 314
332 331 331 329 326 326 326 325 327 328 328 328 327 324 320 321 320 319 320 320 319 318 318 318 318 319 318 317 317 317 317 318 318 318 316 314 312 312 312 311 311 316 318
331 331 330 328 327 327 326 326 327 328 328 329 328 327 325 323 322 321 320 315 313 312 312 312 313 316 316 314 314 313 312 312 313 315 316 316 314 311 311 311 311 310 310
330 331 329 327 328 327 327 327 327 327 326 328 329 328 323 321 322 318 314 314 312 312 312 312 313 313 312 311 310 309 308 307 306 307 309 313 313 315 313 310 310 310 310
328 329 329 329 330 328 328 327 325 322 323 326 323 318 317 316 315 314 312 311 310 310 311 311 310 309 308 307 306 305 305 304 303 305 310 311 312 312 313 313 311 310 311
326 330 331 331 327 323 324 325 320 316 317 316 313 313 313 312 311 311 310 310 309 310 310 307 306 305 306 305 304 303 302 301 300 303 307 308 309 310 309 309 309 311 310
329 330 328 330 328 326 322 318 315 314 313 312 311 311 311 310 310 309 309 309 309 308 306 305 304 304 303 303 302 302 301 300 300 305 305 306 305 304 302 302 302 303 306
326 329 327 325 317 318 314 314 314 313 311 311 311 310 309 308 307 307 306 305 305 304 303 302 302 302 302 302 302 302 301 301 301 304 304 303 301 300 301 300 299 298 299
316 318 318 318 314 315 315 314 314 312 311 311 309 309 308 307 306 306 305 303 302 301 301 301 301 301 301 301 304 303 301 302 303 302 302 301 299 299 299 298 297 297 297
315 314 313 312 312 312 314 312 311 311 311 310 307 306 305 304 304 302 301 300 300 301 300 300 300 301 301 302 302 302 300 300 299 301 299 300 297 298 296 295 295 296 295
311 312 312 312 312 312 311 311 310 310 310 307 305 304 303 302 300 300 299 299 299 299 299 297 298 299 300 298 300 298 298 299 297 297 298 296 297 295 294 295 296 295 295
313 312 312 312 312 311 311 310 310 309 306 305 303 301 301 300 299 299 300 299 299 298 298 297 297 297 296 295 294 295 295 295 297 296 295 295 295 294 294 295 295 295 293
310 310 309 310 310 310 310 309 308 307 304 303 302 304 304 302 302 301 300 299 298 298 297 297 296 294 292 292 292 293 294 294 294 294 294 293 293 294 294 294 295 294 293

GFSSE_925_thetae_006.txt.gz
Theta_e
341 341 340 339 337 335 334 334 333 333 333 332 330 329 330 331 330 327 323 319 316 316 316 312 315 318 320 322 323 324 325 327 330 332 329 327 325 327 329 326 325 325 329
341 341 340 339 337 336 334 334 333 333 333 332 330 331 332 329 324 320 316 311 309 314 320 318 319 319 320 322 324 324 324 325 327 328 328 327 327 326 328 329 326 323 325
341 341 340 339 337 336 335 334 333 334 333 331 331 332 328 323 319 316 311 309 311 322 324 323 319 314 314 315 316 318 321 324 325 327 327 327 326 327 328 329 325 324 323
341 341 340 339 337 336 335 334 335 335 333 332 331 326 321 318 317 315 310 309 310 310 311 312 309 309 310 310 311 312 314 319 321 324 326 327 327 327 328 331 326 324 325
341 341 340 338 337 336 336 336 336 335 332 331 326 321 318 317 316 315 310 308 308 308 308 308 307 307 307 307 306 307 308 310 314 320 325 326 327 327 328 333 328 323 325
340 339 339 338 337 337 336 336 335 332 331 327 322 318 318 316 316 314 308 306 307 306 309 311 311 308 307 307 311 313 313 314 314 315 319 324 328 328 326 326 329 323 325
339 338 337 337 337 336 336 334 332 331 327 321 318 318 316 314 313 308 310 309 311 314 315 315 315 314 312 313 313 310 312 313 314 318 322 325 327 327 327 328 326 324 325
339 338 337 337 336 335 332 332 332 328 322 319 318 316 315 313 311 316 316 316 316 315 315 315 315 315 314 314 313 312 308 310 314 318 321 321 323 326 326 327 324 323 325
340 338 338 336 335 333 334 331 327 324 320 318 317 317 318 314 318 319 318 317 317 316 316 316 315 315 315 315 315 315 312 309 308 311 315 317 318 320 329 328 320 319 318
341 342 342 337 336 335 332 327 323 321 318 318 317 321 321 321 322 322 320 319 318 317 317 317 316 316 316 316 316 315 315 315 313 312 310 309 313 316 321 327 323 316 313
337 342 338 337 334 329 327 323 321 319 318 317 321 323 322 323 323 323 322 321 319 318 317 318 318 318 317 317 317 317 316 316 315 315 313 312 311 312 314 318 320 314 310
339 341 335 331 327 326 323 319 317 317 318 322 325 324 324 324 324 323 321 319 318 317 318 318 318 319 319 318 318 317 318 317 317 316 315 313 313 312 311 313 315 315 311
326 330 327 324 322 320 318 317 317 320 322 326 327 326 325 325 324 320 318 317 317 318 318 319 319 318 318 318 318 317 317 318 318 318 317 315 313 312 312 315 316 317 316
328 326 324 323 319 317 317 318 320 324 325 325 326 325 324 324 322 319 318 318 319 319 318 317 317 317 318 317 316 316 315 315 317 317 317 318 316 312 312 312 318 319 318
327 328 327 325 321 320 319 322 324 325 327 327 327 326 325 325 323 319 320 320 318 316 315 314 313 314 315 315 314 313 312 310 309 310 313 315 316 316 314 313 312 317 318
328 328 329 328 325 323 325 323 324 326 328 328 328 327 327 324 323 320 320 315 312 311 311 311 312 312 312 311 310 309 306 305 303 303 306 308 311 312 314 314 314 312 312
330 330 330 330 329 325 326 325 326 327 327 328 329 329 326 322 321 316 313 311 310 310 310 311 310 309 308 307 306 305 304 303 302 301 302 308 310 311 311 312 313 314 313
326 329 329 329 328 327 327 326 323 323 325 322 319 316 315 314 312 311 310 310 309 309 309 307 306 305 305 304 303 302 302 301 300 300 306 306 307 308 307 305 307 310 312
322 328 329 328 328 325 323 325 321 315 314 313 313 312 311 311 310 310 310 308 308 307 306 304 303 302 302 302 301 300 300 299 300 305 304 304 303 302 302 302 301 301 302
327 330 330 327 326 324 323 321 311 312 312 313 312 311 310 310 309 307 306 306 305 305 304 302 301 300 300 300 297 299 296 299 301 304 303 302 301 301 301 300 299 299 300
326 328 327 327 323 317 314 314 313 313 312 311 310 308 307 306 305 305 304 303 302 301 300 299 298 298 298 300 300 298 297 301 300 300 301 300 300 299 298 297 296 296 297
323 324 319 317 316 315 315 315 316 314 311 309 306 305 304 303 303 302 301 300 299 299 298 297 296 296 298 300 301 301 299 300 301 298 300 298 297 296 296 295 294 294 295
313 314 313 313 312 312 311 311 311 310 310 308 305 303 302 302 301 300 299 300 300 298 298 297 297 296 298 298 299 300 298 298 297 298 297 297 295 295 294 293 293 293 294
310 310 311 311 311 311 310 310 310 310 309 306 304 301 302 302 301 302 302 301 300 298 298 297 297 296 297 296 297 296 295 296 296 296 296 295 294 294 293 293 293 294 294
310 311 310 310 310 310 310 309 309 308 305 304 302 303 303 303 302 301 301 301 299 298 297 296 296 296 294 293 293 293 294 293 295 294 293 292 291 291 292 290 291 293 294
310 310 310 311 310 309 308 307 307 306 304 303 303 303 303 302 302 301 300 299 298 296 295 294 292 291 290 289 289 290 291 291 291 292 290 290 290 290 288 290 291 290 293

GFSSE_925_thetae_009.txt.gz
Theta_e
341 342 339 336 332 332 332 332 333 333 332 329 328 329 330 330 327 322 320 315 311 318 325 326 324 323 321 322 323 324 325 326 327 328 328 327 327 328 332 329 327 329 326
341 341 339 337 333 333 333 332 333 333 332 331 331 332 330 325 320 316 312 313 322 327 326 323 318 314 315 316 319 321 322 323 324 326 327 328 327 326 329 330 326 328 325
341 341 339 337 335 334 333 333 334 334 332 332 332 329 323 319 316 312 312 317 323 324 322 318 311 309 309 309 310 311 313 316 318 322 324 329 329 327 328 327 328 326 326
341 341 339 337 336 334 333 333 334 333 332 331 328 323 319 317 315 311 311 311 310 312 311 308 307 307 307 306 306 307 308 309 311 314 323 325 329 328 329 331 328 327 325
341 340 338 337 336 335 334 335 335 333 331 329 323 319 318 316 315 310 308 308 308 308 309 309 307 306 306 308 312 312 312 313 313 316 320 323 330 329 327 326 328 327 325
340 339 338 338 336 335 335 336 334 331 330 325 320 318 317 316 314 308 307 307 311 314 314 313 312 312 312 311 310 308 310 312 314 319 321 323 327 326 327 329 325 325 325
339 339 338 337 336 336 336 335 332 330 328 322 318 318 315 314 308 310 310 314 315 315 314 314 314 313 313 314 313 310 308 309 313 320 321 321 320 323 328 329 322 321 324
339 338 338 336 336 336 335 333 331 328 322 318 318 316 314 311 314 316 316 316 316 316 316 315 315 315 315 315 315 315 314 312 310 312 312 317 316 317 325 329 322 318 316
338 338 338 337 336 335 333 332 330 325 319 318 317 317 314 316 318 317 317 317 316 317 316 316 315 315 315 316 316 315 315 315 314 313 312 314 310 314 322 324 325 319 313
338 338 337 337 336 333 332 332 327 323 319 318 317 319 317 319 320 319 318 317 317 316 316 316 316 317 316 316 317 317 316 315 316 315 314 313 312 311 319 316 315 316 315
337 337 336 339 334 334 333 329 325 321 319 318 319 321 321 321 322 321 320 318 317 316 316 317 317 318 318 318 317 317 318 317 317 317 316 314 312 312 313 314 314 313 313
337 336 336 339 337 335 331 326 323 321 319 319 322 322 322 323 323 323 321 318 317 317 317 318 318 318 318 319 318 317 316 316 317 317 318 317 316 313 314 320 319 317 316
336 335 338 339 334 331 329 325 322 320 320 323 325 325 325 325 325 322 319 317 317 318 319 318 318 318 318 317 316 314 313 314 316 317 317 317 317 317 314 315 318 319 319
334 333 332 331 329 328 325 323 322 321 322 325 327 327 326 326 325 320 318 318 319 318 316 314 313 313 314 315 313 312 312 311 310 309 310 312 314 316 316 315 315 320 319
331 327 328 328 326 324 323 322 322 324 325 327 327 328 327 326 324 319 319 318 315 312 311 311 311 312 312 311 310 310 307 305 305 306 306 306 308 310 311 313 314 314 316
328 327 328 327 325 324 324 324 324 325 326 326 326 325 325 323 322 320 316 311 311 310 310 310 310 310 309 308 307 306 303 303 303 302 306 303 304 307 309 310 310 312 313
327 328 328 327 326 324 325 325 319 320 319 321 324 324 324 320 317 313 312 312 311 310 309 309 308 306 306 305 305 304 303 302 303 301 303 304 304 305 306 307 307 305 305
325 328 328 328 326 326 325 322 322 321 321 320 318 314 312 313 313 310 310 309 308 307 307 307 305 306 305 304 304 304 303 303 303 306 304 303 303 303 304 304 304 303 302
325 327 327 328 326 325 324 323 323 319 316 314 313 311 311 310 309 308 307 306 306 306 305 303 303 302 304 302 300 302 300 300 305 305 304 303 302 302 301 301 301 301 301
327 327 327 327 324 323 324 324 316 312 311 312 311 309 308 307 306 305 305 304 303 302 301 300 300 301 301 300 298 300 299 300 305 305 303 302 301 300 299 299 298 298 297
327 328 327 325 324 325 323 313 312 312 312 310 309 308 307 305 304 303 302 300 299 300 300 299 298 298 299 300 299 299 298 302 303 301 301 300 299 298 297 297 296 296 296
326 325 325 323 320 317 315 314 314 314 310 308 306 305 304 303 302 300 301 302 302 300 299 298 297 299 299 300 298 298 300 299 299 301 299 298 297 297 296 295 295 295 295
317 316 317 315 314 313 313 312 311 310 309 307 304 303 302 303 303 302 301 301 301 300 299 298 299 299 299 298 299 297 298 298 298 297 297 297 296 294 294 293 293 293 294
311 311 311 311 310 309 309 309 309 309 309 305 302 303 303 302 302 301 301 300 300 299 298 298 297 296 296 295 295 296 296 296 296 295 294 293 293 291 291 292 291 292 292
308 308 308 308 308 308 308 308 308 307 305 303 303 303 302 302 302 301 300 300 299 297 296 295 294 293 293 292 292 292 292 292 292 292 291 291 290 289 290 288 290 290 290
308 308 309 308 306 305 305 303 303 303 302 302 302 302 302 302 302 301 300 299 298 296 294 292 291 290 291 290 290 290 289 289 289 290 290 289 289 288 287 288 288 288 287

GFSSE_925_thetae_015.txt.gz
Theta_e
343 338 330 330 329 329 328 327 327 326 326 327 328 330 329 324 320 316 317 318 325 329 327 323 318 314 312 311 311 311 312 314 317 322 326 330 329 334 331 327 326 330 324
342 338 330 330 331 331 330 329 328 328 329 330 331 328 324 318 315 314 315 315 314 316 320 314 309 308 307 307 308 308 309 310 311 321 326 331 329 331 332 327 326 328 325
343 339 335 331 332 332 331 331 330 330 331 332 328 323 318 314 313 313 313 311 312 317 317 316 309 308 310 310 311 311 311 311 315 319 322 328 333 327 330 327 325 324 328
343 339 336 332 332 332 332 332 332 332 332 329 323 319 315 313 311 311 310 311 312 318 319 313 308 311 309 307 307 308 309 316 319 321 323 322 330 330 330 329 326 324 327
342 340 337 332 333 333 333 334 333 332 330 325 320 317 315 312 310 310 309 313 316 317 315 312 312 311 311 310 310 309 310 317 319 322 322 324 327 330 331 322 326 327 324
341 341 336 333 333 333 334 334 332 331 327 322 319 317 317 311 309 308 314 316 315 315 313 313 313 314 314 314 314 313 313 315 317 316 318 323 324 330 331 324 319 317 320
339 339 336 334 334 334 334 334 332 331 325 320 320 317 315 308 308 313 314 314 314 314 314 315 315 315 315 315 314 314 313 316 318 317 317 320 322 327 329 329 321 316 312
336 339 337 335 335 334 334 333 331 330 323 321 319 316 310 313 314 315 315 316 316 315 315 315 315 315 316 316 316 316 315 316 319 318 317 318 313 323 324 326 320 313 311
336 339 338 336 335 334 334 333 331 326 321 320 316 314 314 316 316 316 316 317 317 317 317 317 317 317 317 317 317 316 316 318 320 319 318 318 313 319 324 324 322 315 313
337 339 337 337 337 338 336 333 329 323 319 318 318 314 318 317 317 317 320 317 317 317 317 317 317 317 317 319 319 316 318 319 318 318 319 318 316 316 318 322 322 319 317
339 338 338 337 336 335 336 331 325 320 318 318 322 319 325 327 326 324 322 318 317 317 317 318 318 317 318 322 321 317 317 317 317 316 319 317 316 317 318 319 318 322 323
338 338 336 337 336 334 330 330 328 325 326 327 329 328 327 328 327 322 323 317 317 318 320 318 317 319 321 320 319 317 317 316 315 315 316 315 314 317 322 321 320 318 319
338 337 337 338 337 330 328 327 325 325 327 330 330 329 329 328 329 327 325 325 325 324 323 322 321 321 321 320 318 318 316 315 314 313 315 313 309 318 321 322 321 320 318
333 336 336 336 335 329 327 325 325 327 328 328 330 330 330 328 328 327 324 325 324 323 322 321 320 320 319 317 316 316 314 313 312 312 315 312 310 306 315 316 316 316 314
330 332 332 332 330 329 326 327 329 330 330 330 331 328 328 329 328 325 324 324 323 321 321 320 319 318 315 314 314 313 313 312 311 311 312 312 310 307 304 309 312 312 312
328 331 331 330 329 327 328 330 329 326 324 321 321 324 324 324 322 319 321 322 320 319 318 316 315 314 313 314 313 312 311 311 310 310 310 311 309 308 306 304 303 307 309
330 332 331 330 329 328 330 327 322 322 320 319 323 323 324 325 321 321 319 318 316 315 313 312 312 312 311 311 311 310 309 309 309 309 308 310 309 308 306 306 304 302 304
331 334 333 330 329 330 328 323 322 321 320 321 319 316 317 317 317 314 313 315 314 312 312 312 311 310 309 309 308 308 307 306 306 307 306 308 309 308 306 304 303 301 301
329 333 334 332 331 329 327 322 325 324 321 321 318 316 315 314 314 315 314 313 312 311 310 310 309 309 308 308 307 306 306 305 306 305 305 306 308 306 305 304 302 300 300
330 333 334 333 332 328 327 326 326 324 321 319 318 315 314 313 312 312 312 311 310 310 309 309 309 308 306 305 305 305 304 303 302 302 304 307 306 305 303 302 301 300 298
332 333 332 331 330 329 329 327 323 320 319 318 315 313 312 311 310 310 310 310 309 309 308 307 307 306 303 302 302 303 303 302 302 303 303 304 304 303 302 301 299 298 297
333 333 331 331 330 329 326 322 320 320 319 315 313 312 310 310 309 309 309 309 308 307 306 305 304 304 302 302 302 302 303 301 301 301 300 300 300 300 299 298 297 296 296
332 332 331 329 327 324 321 321 321 319 315 314 313 311 310 309 309 308 307 307 306 305 303 302 302 303 302 301 300 300 301 301 299 298 298 298 298 298 297 296 295 294 294
329 327 325 323 321 321 318 317 317 317 316 314 312 311 310 309 308 307 305 304 304 303 302 301 301 301 300 300 299 299 298 298 299 299 296 295 295 295 295 294 293 293 292
322 321 320 318 315 316 316 316 315 314 312 310 310 309 307 305 301 300 299 299 300 301 302 302 301 300 299 299 298 297 296 296 295 295 295 294 294 293 293 293 292 292 292
318 317 316 315 315 314 314 313 312 310 308 307 303 301 300 298 298 297 297 298 298 300 301 301 300 299 300 298 296 295 295 294 293 293 294 293 294 293 292 292 291 291 291

GFSSE_925_thetae_021.txt.gz
Theta_e
335 337 340 341 339 338 332 328 327 327 329 330 325 318 315 314 315 317 318 319 319 320 319 316 311 310 309 309 309 310 312 318 323 328 330 329 333 332 325 324 324 327 325
333 336 339 340 339 334 328 327 328 330 330 326 320 316 315 315 316 315 314 315 315 318 319 317 309 308 308 308 311 316 318 318 318 320 331 329 331 331 326 324 327 330 328
332 334 336 336 333 328 328 329 330 331 327 320 317 316 315 313 313 312 313 314 315 320 321 318 312 311 311 312 315 316 316 318 318 326 330 331 326 326 328 325 325 328 328
329 329 331 329 328 328 329 331 332 328 321 317 315 314 312 311 311 314 316 316 318 322 322 318 313 312 312 312 312 315 317 320 323 325 326 322 321 327 327 319 318 322 325
333 330 329 329 329 330 332 333 329 323 318 316 314 311 310 309 314 316 316 316 319 321 318 313 313 313 312 314 314 316 319 320 323 322 319 311 315 328 328 321 316 313 313
335 331 331 331 332 332 333 330 325 320 317 315 312 309 307 313 313 313 313 313 314 314 313 313 314 313 313 315 317 318 318 318 320 316 313 312 313 321 325 319 312 312 310
335 333 333 333 333 332 332 326 321 318 315 314 310 307 310 313 313 313 312 313 314 314 314 314 315 314 318 317 316 318 317 315 319 315 314 314 316 318 316 315 314 312 312
334 333 333 334 333 332 330 324 319 317 314 312 308 310 313 313 313 313 313 314 314 314 315 315 315 315 318 319 316 316 318 315 319 317 316 316 316 321 317 317 317 317 315
332 333 333 331 326 331 328 322 318 316 313 310 312 314 313 312 313 313 314 314 315 315 316 316 315 314 317 320 317 317 317 315 317 319 316 315 314 314 315 320 320 320 321
328 325 327 329 331 331 326 319 315 315 312 311 315 314 314 316 319 321 317 314 314 315 315 315 317 319 320 320 321 319 316 316 315 317 314 314 316 318 313 318 321 323 321
328 325 323 329 331 329 322 316 314 315 314 316 321 323 326 322 325 325 319 314 316 320 318 321 321 320 321 320 319 318 317 316 314 315 314 313 316 319 312 315 321 321 321
325 328 326 332 331 325 318 314 321 325 323 322 327 327 328 327 325 322 324 322 324 323 323 322 322 321 320 318 317 316 315 314 312 312 312 312 313 320 315 311 313 314 315
330 332 331 330 326 325 321 322 328 329 328 328 330 329 327 328 327 327 327 325 325 323 322 321 318 318 316 314 314 314 314 314 312 311 311 313 311 316 317 316 315 314 313
333 333 333 332 328 327 324 327 328 329 328 329 331 330 329 330 328 326 324 320 321 320 320 318 316 314 313 313 312 313 312 311 311 311 310 310 310 310 314 314 313 312 311
334 334 334 334 328 328 327 329 329 330 330 330 329 327 327 328 327 327 321 320 320 319 317 314 313 312 312 311 310 309 309 309 308 306 310 310 309 308 310 312 311 309 308
334 331 333 328 327 327 329 327 329 328 327 323 321 319 319 321 323 322 321 320 318 314 313 312 312 310 310 309 309 309 308 307 307 306 305 307 308 308 308 308 307 307 306
330 330 333 326 328 327 328 328 326 320 319 319 319 319 321 325 324 319 315 315 313 312 312 311 310 310 309 309 308 307 305 307 306 306 304 303 306 308 307 305 304 305 304
329 329 331 328 330 329 329 325 321 321 321 320 319 318 317 316 315 316 315 314 312 311 310 310 310 309 308 308 306 304 304 303 303 304 303 302 303 305 307 304 302 303 302
330 330 329 327 330 329 328 322 322 323 322 320 317 315 314 314 314 313 313 311 310 310 309 308 308 307 306 306 304 303 302 304 303 302 302 301 305 307 305 304 301 300 299
331 330 329 328 331 330 328 322 325 324 322 318 316 315 314 313 313 312 311 310 309 309 308 307 305 304 303 304 303 302 302 301 301 300 299 298 299 299 303 300 299 299 298
331 330 329 330 330 329 325 324 327 323 320 316 315 313 311 310 310 310 310 309 309 308 307 305 303 302 302 303 302 300 300 300 300 299 298 298 297 296 296 296 296 295 295
332 330 331 331 330 328 323 326 326 321 318 316 314 312 311 310 309 309 308 308 307 305 305 304 303 302 302 302 300 300 297 299 298 297 297 297 295 294 294 294 294 294 293
333 331 331 331 330 328 328 328 323 320 315 314 312 311 310 309 309 307 305 302 301 301 301 302 302 302 301 301 300 299 296 296 295 296 296 294 294 293 293 292 293 292 292
332 332 331 330 328 329 329 321 320 315 314 313 312 311 308 306 305 302 300 298 298 298 297 298 301 301 301 300 300 299 297 295 293 292 293 293 292 292 292 292 292 291 291
332 330 328 328 328 329 322 321 319 314 312 311 308 306 305 303 300 298 298 298 297 297 299 299 301 301 300 300 299 298 296 295 294 292 290 291 292 292 292 292 291 291 291
331 331 330 325 319 318 320 317 315 311 308 308 307 303 301 299 298 298 297 297 296 298 299 300 300 299 299 298 298 297 295 294 293 292 290 290 291 291 291 290 291 291 290

GFSSE_925_thetae_024.txt.gz
Theta_e
343 342 339 339 337 333 328 327 328 329 326 319 315 312 311 311 313 315 317 318 322 323 319 310 309 309 310 314 316 317 317 318 325 330 327 331 332 331 327 326 329 328 331
342 341 340 338 336 330 328 328 329 328 322 316 314 312 311 312 312 313 314 315 318 321 317 311 311 313 315 314 316 319 318 320 323 330 329 324 329 330 329 325 328 329 330
344 342 340 338 333 328 327 329 330 324 318 315 314 312 311 311 311 312 312 314 315 317 313 312 312 312 313 315 319 320 320 324 328 329 325 319 319 321 322 322 325 329 329
340 340 339 336 328 327 329 331 327 320 316 313 312 311 310 311 313 313 312 313 314 314 313 312 312 315 316 317 317 320 322 326 328 322 315 314 314 316 315 315 315 314 322
340 339 337 329 327 330 332 330 322 317 315 313 310 309 310 315 314 313 312 313 313 313 312 312 314 315 317 317 317 317 320 320 317 313 315 314 317 322 311 310 310 310 310
337 335 329 328 329 332 332 324 318 315 314 311 309 309 314 313 312 311 311 312 312 313 313 313 318 317 316 317 317 317 317 319 315 314 315 315 317 322 313 312 312 312 311
336 331 329 330 332 332 326 320 317 314 312 309 308 312 311 311 311 311 312 312 313 314 314 314 317 319 316 316 317 317 315 318 315 316 316 317 319 322 320 315 315 315 314
334 333 332 333 332 329 322 318 316 314 310 307 310 312 312 312 312 312 313 313 314 315 315 314 315 318 320 318 318 317 315 317 317 316 316 318 321 324 324 322 320 320 321
332 334 331 328 325 327 322 319 314 312 309 309 312 312 313 313 313 313 314 315 315 315 314 315 317 320 320 319 318 317 315 314 318 315 315 318 323 324 324 320 324 324 323
327 324 325 327 329 326 320 316 314 310 310 313 313 312 312 313 314 313 314 314 315 315 319 320 319 321 320 319 319 318 316 314 313 313 313 316 321 323 320 313 316 321 322
326 325 321 328 329 324 318 315 313 310 314 314 314 314 323 323 323 315 314 316 318 318 321 321 321 321 320 318 317 316 315 314 313 312 312 313 319 321 320 313 312 313 316
324 324 320 326 329 323 317 316 314 313 316 319 323 324 326 325 324 323 317 318 323 323 322 322 321 318 315 315 314 313 314 313 312 311 311 312 316 319 318 313 310 309 308
325 323 329 330 329 320 315 317 315 317 323 325 326 327 327 325 325 325 324 324 324 321 319 317 316 314 314 313 313 313 312 311 311 311 310 311 310 317 317 316 314 310 306
325 323 328 331 326 318 318 324 327 326 327 330 329 328 328 326 325 325 321 322 321 318 317 315 314 313 312 310 310 309 309 308 307 306 310 311 310 311 314 314 313 311 308
329 328 330 332 325 321 323 328 329 329 330 330 329 329 328 327 327 322 320 319 319 318 315 313 312 311 311 310 310 309 308 306 307 305 305 307 309 311 313 314 312 310 308
331 331 330 328 327 325 326 327 329 330 329 327 326 327 327 325 323 321 320 318 316 314 312 312 311 310 309 309 308 307 306 305 305 304 303 303 304 309 310 311 309 308 307
333 332 332 330 330 327 326 329 329 329 326 322 320 319 320 322 323 319 317 314 312 311 311 310 310 309 309 308 307 304 303 302 303 303 302 302 303 306 308 308 306 305 304
332 333 334 332 328 328 329 328 324 320 319 319 319 320 322 320 315 316 314 312 310 310 310 309 308 308 306 305 304 304 302 303 301 301 301 302 305 307 306 303 304 304 303
331 332 329 329 328 329 328 323 320 321 320 318 316 315 315 314 315 313 311 310 310 309 309 308 307 305 303 303 303 302 302 301 300 299 298 298 300 305 304 303 299 299 299
328 332 329 329 328 327 325 322 322 322 318 316 315 313 313 313 313 311 311 310 309 309 308 307 305 303 302 302 303 301 301 300 299 298 297 296 296 296 296 296 296 295 295
328 331 328 329 329 328 323 323 323 322 318 315 315 313 312 311 311 311 310 309 308 307 305 304 303 302 301 302 302 301 300 299 298 297 297 295 294 294 294 293 294 295 293
329 329 328 328 329 328 327 324 324 323 318 315 312 311 310 310 310 309 309 308 306 304 303 303 302 301 302 301 300 298 295 298 297 297 296 293 293 293 292 292 292 292 292
329 329 328 329 329 329 329 324 325 321 315 312 311 311 310 309 309 308 306 304 301 299 298 298 301 301 301 300 299 299 295 294 294 295 294 293 293 293 292 292 291 291 291
329 330 329 328 329 329 326 325 325 318 313 312 311 311 309 309 308 304 300 299 298 297 297 298 299 301 301 300 299 298 297 295 291 291 293 293 293 292 292 291 291 291 291
329 329 330 329 329 328 323 327 324 318 314 312 311 310 308 302 300 298 298 297 296 296 298 299 300 300 300 299 299 297 297 295 293 291 289 291 292 292 291 291 291 290 290
330 330 330 330 329 328 328 325 323 318 313 311 309 304 300 298 298 297 297 296 295 297 298 299 299 299 298 298 297 297 295 294 293 292 288 289 290 291 290 290 290 290 289

GFSSE_925_thetae_027.txt.gz
Theta_e
342 339 338 336 332 326 325 327 326 321 316 313 311 309 310 310 310 312 317 319 320 322 323 324 324 317 316 318 318 318 320 329 327 322 327 330 330 329 329 329 327 330 331
343 339 338 336 330 326 327 328 325 318 314 313 310 310 310 311 312 315 315 314 315 323 323 324 318 317 319 319 318 320 322 329 326 315 315 326 328 327 325 321 328 329 330
342 340 338 334 328 326 328 328 323 317 314 315 313 311 310 310 313 312 310 311 312 316 323 323 319 317 318 321 321 324 326 328 324 319 318 317 321 324 322 319 318 326 329
341 340 337 333 327 327 329 327 321 317 319 315 311 309 310 311 312 310 311 312 313 314 321 322 318 317 317 321 323 323 324 318 315 315 315 315 317 320 314 314 316 316 313
339 339 336 333 330 329 329 324 319 316 313 311 310 312 313 312 312 311 312 312 313 314 316 316 317 317 317 316 317 318 318 313 315 315 316 318 320 322 318 312 312 312 311
340 339 335 329 329 330 328 320 315 313 312 312 312 315 316 313 312 312 313 313 313 316 318 317 316 317 317 316 315 317 317 314 316 317 319 322 324 324 322 315 316 320 318
337 338 331 328 331 330 322 316 313 312 311 309 312 313 313 313 314 314 313 313 314 314 317 319 317 317 318 317 315 315 316 316 316 315 316 320 324 325 325 324 319 321 324
337 334 330 330 331 324 317 314 313 312 310 310 313 312 312 312 313 312 313 314 315 314 315 319 320 318 318 317 316 316 315 318 315 314 315 317 321 324 324 325 322 320 322
332 331 333 332 327 320 317 314 313 310 309 312 312 311 312 313 313 313 314 315 314 314 317 319 320 320 320 318 317 317 315 314 313 313 314 319 323 324 324 323 321 321 322
325 326 326 325 325 324 318 313 311 308 309 312 313 313 313 313 314 314 315 315 316 318 319 319 320 320 319 318 317 316 315 313 313 312 312 318 323 323 322 313 311 312 315
324 324 323 322 322 321 316 314 311 309 313 313 313 313 314 315 314 315 315 317 318 320 320 321 320 320 317 316 315 314 313 313 312 311 312 314 319 321 319 312 309 309 309
324 322 321 323 323 321 319 316 311 314 314 313 315 318 321 321 317 316 319 322 322 322 322 321 318 316 315 314 313 313 312 312 311 311 312 313 315 319 319 314 309 309 307
324 323 327 327 324 322 318 315 312 315 316 316 319 322 324 324 323 321 321 323 322 321 319 317 316 314 313 312 312 310 309 308 307 308 311 313 316 317 318 317 313 311 308
322 321 324 326 327 323 318 316 314 317 319 322 324 326 325 325 326 324 324 323 320 318 316 315 313 311 310 309 309 308 307 307 306 305 309 310 312 314 316 316 315 312 311
323 322 325 329 329 321 317 319 318 322 327 329 327 327 326 325 325 322 320 320 318 315 314 312 311 310 310 309 308 307 305 305 305 304 304 305 307 309 314 315 313 311 309
324 324 329 331 329 322 319 323 326 328 329 329 328 327 326 325 323 321 319 318 315 313 311 311 310 310 309 308 307 304 303 302 302 302 302 303 303 306 311 313 311 309 308
326 326 327 330 329 321 321 325 328 329 328 328 327 327 325 323 321 319 316 313 312 311 310 310 309 309 308 307 305 303 302 302 300 300 301 302 303 309 311 308 308 306 305
330 330 330 331 329 325 325 327 329 329 325 322 320 320 322 323 320 315 313 311 310 310 309 309 308 306 305 303 303 302 301 300 299 299 299 302 306 308 306 304 305 304 303
331 330 330 331 328 327 327 328 328 324 319 319 319 321 320 316 315 314 312 310 309 309 308 307 306 303 302 301 302 301 300 299 298 297 297 298 302 305 303 300 298 297 298
332 331 332 332 332 328 327 325 320 320 319 318 317 317 315 315 314 312 310 310 309 309 308 305 303 302 300 301 302 301 300 298 298 297 296 296 296 296 295 295 295 294 296
331 331 333 329 328 328 324 321 321 320 318 315 314 314 313 313 311 310 310 309 308 306 303 302 301 300 300 301 301 300 299 297 297 296 295 294 294 293 293 293 293 293 292
330 331 331 328 328 327 324 322 321 320 316 315 313 312 311 311 310 309 308 307 304 303 301 299 298 300 301 301 300 298 295 297 296 295 294 293 293 292 292 292 291 291 291
328 330 330 328 327 326 324 323 322 319 317 313 312 310 309 309 309 308 306 303 300 299 298 296 297 300 300 300 299 299 294 294 294 296 293 293 293 293 292 291 291 291 291
326 328 329 328 328 327 325 324 323 319 313 311 310 309 309 308 307 303 300 299 298 297 296 296 298 299 301 300 298 298 297 296 291 291 293 292 292 292 292 292 291 290 290
327 326 328 328 327 327 326 325 324 318 314 312 310 309 306 303 300 298 298 297 296 295 295 297 298 299 299 299 298 297 296 295 293 290 289 291 292 292 291 291 290 290 289
328 327 328 327 327 327 327 324 324 320 314 311 309 307 303 300 298 298 297 296 295 294 296 299 299 298 297 297 297 296 296 294 293 291 288 289 289 291 291 290 290 290 289

GFSSE_925_thetae_030.txt.gz
Theta_e
341 339 333 329 327 327 326 324 321 318 315 313 313 321 322 317 316 316 318 319 321 324 325 325 321 319 318 319 320 329 326 315 319 327 328 327 327 327 328 328 327 329 331
340 338 334 329 326 327 325 321 317 315 314 311 313 314 312 311 312 312 318 324 325 326 326 326 320 319 318 320 321 328 321 314 314 316 322 325 325 324 322 322 327 329 330
340 339 333 328 326 326 325 320 315 312 310 310 311 311 311 312 314 317 322 325 325 325 326 323 320 321 322 323 324 324 316 315 315 316 318 321 322 322 321 321 322 324 327
339 338 333 328 326 327 324 319 315 311 309 309 309 310 311 311 314 318 321 324 324 325 325 319 318 322 322 321 321 318 315 316 316 316 317 319 322 323 322 321 321 321 322
339 338 333 329 329 328 324 318 314 311 309 309 311 311 314 316 316 317 318 322 324 324 322 317 316 315 316 318 318 314 315 316 316 316 317 320 322 324 323 321 319 321 323
339 338 334 329 329 328 323 316 313 310 309 313 312 315 322 322 317 314 315 318 321 323 321 317 316 315 315 317 318 315 316 316 316 317 320 323 324 324 324 323 322 323 322
339 338 334 330 329 327 321 315 314 310 312 317 319 321 324 317 315 314 314 318 318 318 319 318 317 316 315 314 316 316 317 315 314 314 316 322 324 325 325 324 323 324 324
338 337 334 328 329 326 321 313 313 312 318 316 320 320 317 315 314 314 314 314 315 318 320 319 318 317 316 316 316 315 316 314 313 313 315 321 324 324 323 323 320 323 323
335 335 334 330 329 323 317 315 312 313 314 317 317 315 313 313 313 314 315 314 315 318 320 320 319 319 318 317 316 315 314 313 312 313 314 316 319 323 322 321 318 319 321
328 328 327 325 320 318 317 317 313 312 313 315 313 312 312 313 314 315 315 316 317 318 319 320 319 318 317 316 315 314 313 313 312 312 316 321 322 321 320 314 309 311 314
323 322 320 318 320 323 318 316 311 316 315 312 312 313 314 315 315 315 316 317 319 320 320 320 319 317 316 314 313 313 313 312 311 312 315 319 320 320 319 314 311 311 311
322 321 320 319 318 317 319 313 310 312 312 313 314 314 314 314 315 316 318 319 321 321 321 318 317 315 314 313 312 311 311 310 310 311 314 318 318 319 319 316 314 315 314
322 322 320 320 320 320 317 313 312 314 314 315 315 319 319 316 316 319 322 322 321 319 317 316 315 313 312 311 309 308 307 307 306 307 311 313 317 317 318 317 315 314 312
321 319 320 320 319 321 322 315 313 315 314 317 321 324 323 323 321 320 322 320 318 315 315 314 313 311 310 309 308 307 306 305 305 305 307 310 312 314 316 316 314 312 311
321 321 323 326 325 325 320 317 315 316 317 319 323 324 324 324 324 323 322 318 317 315 314 312 311 310 309 308 307 305 303 303 303 303 303 303 306 309 313 315 313 311 310
322 323 326 327 329 325 320 318 316 320 323 324 326 326 325 325 323 320 318 317 315 313 312 311 310 309 308 307 305 303 301 301 301 302 302 302 303 308 311 313 311 309 308
321 322 324 328 330 326 321 319 319 328 329 328 327 326 324 323 321 319 318 316 313 311 310 310 309 308 307 305 303 301 301 300 300 300 301 301 304 309 311 309 308 306 307
322 322 323 328 330 327 321 323 326 328 328 327 327 326 325 323 320 319 316 313 311 310 309 308 308 307 305 301 301 301 300 299 298 299 300 302 306 308 305 305 305 304 302
323 325 326 327 330 328 322 323 328 327 325 324 323 322 322 322 318 315 312 311 309 309 308 308 306 302 300 300 301 300 299 298 297 297 297 300 305 305 302 300 297 297 299
326 328 329 329 330 327 323 326 327 325 323 319 319 320 320 316 313 312 311 309 308 308 307 303 301 300 299 300 301 301 299 297 296 296 296 296 296 296 296 296 294 294 294
328 330 330 330 330 327 326 326 323 321 319 318 318 317 315 315 312 311 310 308 307 306 303 301 300 300 300 300 300 299 297 296 296 295 294 294 294 294 293 293 293 293 292
329 330 330 330 330 328 327 326 324 319 318 317 315 314 313 313 310 309 308 307 305 302 298 298 298 299 300 300 299 297 294 296 296 294 293 293 293 293 292 292 291 291 291
330 331 330 330 331 330 326 323 320 319 317 314 312 311 311 310 309 308 307 303 299 298 296 296 296 297 299 299 299 298 295 294 293 295 293 292 292 292 292 291 291 291 290
328 329 329 330 330 327 325 323 321 320 315 313 312 310 308 308 308 305 301 299 298 296 295 295 296 298 299 299 298 298 297 296 293 293 294 294 292 292 292 292 291 290 290
328 329 328 328 327 326 326 325 322 319 315 314 310 308 308 306 303 300 299 297 296 294 295 295 296 298 298 298 298 297 296 295 294 291 290 292 292 292 292 291 291 290 289
327 327 327 328 328 326 325 324 322 319 315 311 308 307 305 302 300 298 297 296 297 301 296 295 296 298 297 296 296 296 296 294 293 291 288 289 289 292 292 291 290 289 289

GFSSE_925_thetae_033.txt.gz
Theta_e
340 338 327 326 326 330 333 333 329 326 323 316 310 309 313 320 318 318 318 319 325 328 329 328 323 324 326 329 317 313 314 319 325 326 326 325 324 325 328 328 329 330 331
340 338 332 326 325 325 325 324 322 318 313 310 310 314 319 318 318 318 321 325 327 329 328 319 319 321 322 322 314 314 313 313 314 315 322 323 323 322 322 321 326 329 330
340 338 336 328 326 325 323 319 315 312 310 310 310 316 316 319 322 325 326 326 326 324 323 322 321 321 321 321 315 315 315 314 314 314 319 320 321 323 322 322 323 324 326
340 338 336 329 327 324 321 317 317 318 314 314 310 314 317 322 325 326 325 324 320 322 321 323 323 321 321 319 315 316 316 315 315 319 321 321 321 324 324 323 323 322 321
339 338 336 330 330 325 321 321 323 321 314 311 311 313 319 322 324 324 322 319 319 319 319 319 320 319 319 316 315 316 316 315 315 322 322 322 322 325 325 325 324 324 323
339 338 332 329 327 323 318 320 318 316 318 311 317 317 321 322 324 323 322 320 320 319 316 315 316 317 317 315 316 316 315 314 319 321 322 323 323 325 324 325 325 324 324
338 336 331 329 328 324 327 323 317 311 316 318 318 320 318 317 321 322 322 321 318 317 316 315 314 315 316 316 317 316 314 314 319 320 321 322 323 324 323 323 323 324 323
338 336 333 330 328 323 324 316 315 311 317 317 319 317 315 316 318 319 319 318 318 318 317 316 316 316 315 316 316 315 313 313 318 319 319 320 322 322 321 321 321 321 321
338 336 335 331 326 322 322 314 315 315 320 319 317 315 314 314 314 314 315 317 319 319 319 317 317 317 316 315 314 313 313 312 318 318 318 319 320 321 319 318 318 319 319
333 334 330 329 324 318 317 321 318 318 321 319 314 314 314 314 315 315 315 317 318 320 319 319 318 317 316 315 314 313 313 312 317 319 320 319 322 319 318 316 316 317 318
323 327 322 320 317 319 322 319 321 319 320 316 315 314 313 317 316 316 317 318 319 320 320 318 318 316 315 313 313 313 312 311 315 317 318 319 321 320 318 317 316 316 315
319 319 318 317 317 317 318 316 319 320 314 314 315 314 315 315 315 316 318 319 321 319 318 317 316 314 314 313 312 311 310 309 310 313 317 317 319 320 318 316 315 315 314
318 318 317 315 315 314 312 312 314 314 314 314 314 314 315 315 316 318 320 321 319 317 316 314 313 313 311 310 309 308 307 307 306 307 310 315 316 318 318 316 315 313 313
320 318 316 315 315 316 316 315 316 316 314 315 315 316 315 316 318 321 321 317 317 316 315 314 312 310 309 308 308 307 306 305 304 304 306 310 314 315 317 317 314 312 311
321 321 320 319 318 317 319 316 314 315 314 315 319 322 321 321 319 321 320 317 316 315 314 312 311 310 309 308 307 306 304 302 302 302 303 303 305 309 314 316 313 312 309
321 320 320 319 319 323 323 318 315 315 315 319 322 323 323 323 323 323 319 317 316 314 311 311 310 309 308 306 304 302 300 299 300 300 301 304 302 305 312 315 312 311 308
320 321 322 323 325 325 322 318 315 316 319 321 324 326 325 325 323 321 318 316 313 312 312 310 308 307 306 303 301 300 300 300 301 301 301 303 307 309 312 311 308 307 307
321 322 323 325 327 328 322 318 317 323 326 327 326 325 323 322 320 318 317 314 312 311 309 308 307 306 303 301 301 300 300 299 299 299 300 304 305 306 307 307 306 303 302
322 323 324 326 328 329 323 320 320 327 328 327 326 325 325 322 320 318 316 312 310 308 308 307 305 301 300 301 301 300 299 298 297 298 299 303 305 303 302 303 301 298 297
323 324 325 325 328 329 324 320 324 327 327 326 325 324 323 321 319 315 312 310 308 308 307 303 301 299 299 302 300 300 298 297 296 296 296 296 297 297 297 296 295 295 294
324 325 326 327 327 329 326 322 324 326 322 321 320 320 321 319 314 312 310 308 308 307 304 302 299 299 301 299 301 300 298 296 296 295 295 295 294 294 294 293 294 293 293
326 326 328 328 329 329 326 322 323 324 321 319 318 318 316 314 312 311 309 308 307 304 301 298 297 301 300 299 301 300 301 299 297 295 294 294 293 293 293 292 292 291 292
326 328 328 329 329 328 326 325 325 323 319 315 313 314 314 312 310 309 309 308 305 301 297 296 296 297 300 299 299 300 300 300 299 297 295 294 293 293 293 292 291 291 291
327 328 329 329 329 328 326 324 324 321 318 315 312 311 311 310 309 308 307 304 300 297 295 296 296 297 299 300 299 298 298 299 299 299 296 295 294 294 293 293 292 291 290
328 328 328 328 327 327 326 324 321 320 318 316 312 310 309 308 308 307 303 300 298 295 299 301 297 298 297 299 299 299 298 297 296 297 297 296 294 294 293 293 292 291 289
329 328 328 328 327 326 325 323 321 320 318 315 312 309 308 306 304 302 300 298 296 302 300 296 296 295 297 297 298 297 297 297 296 295 296 295 294 294 293 293 292 291 290

GFSSE_925_thetae_036.txt.gz
Theta_e
341 337 339 342 342 341 340 336 334 333 328 326 320 314 315 317 319 321 321 326 328 329 330 331 334 336 328 325 317 317 320 323 323 321 323 324 325 326 328 329 329 330 332
340 336 338 341 341 341 338 335 335 329 326 320 315 318 319 318 318 320 322 325 325 330 331 330 331 332 326 319 315 315 314 315 319 322 320 322 324 324 323 323 326 329 329
340 335 335 339 340 338 337 335 329 325 318 312 315 315 316 318 320 322 324 324 328 332 331 332 332 331 321 315 315 314 314 315 319 320 320 320 321 325 324 324 323 325 326
340 337 333 331 334 334 331 327 323 318 316 320 317 317 319 322 322 323 323 328 332 333 333 331 329 321 315 316 315 314 314 318 321 321 321 321 322 325 325 325 324 324 323
340 337 335 329 327 326 323 320 320 323 323 320 320 320 322 322 323 322 324 326 328 330 333 328 321 317 315 316 315 315 315 320 321 321 322 322 322 324 325 325 324 325 324
339 338 335 328 325 322 319 320 326 324 325 323 326 320 323 322 321 322 323 323 322 322 320 319 319 316 316 316 315 314 315 319 320 321 322 322 322 324 324 324 325 324 323
338 338 335 328 326 324 325 327 325 320 318 323 326 322 323 323 322 322 322 320 316 315 316 317 317 316 316 316 315 313 313 317 319 319 321 321 321 322 321 321 322 323 323
337 336 335 329 330 330 330 327 319 320 317 321 321 324 324 324 322 321 318 317 316 315 315 315 316 316 316 316 313 313 313 318 318 318 319 320 321 320 319 319 320 320 320
337 336 334 330 329 328 326 325 320 320 318 324 321 322 322 320 320 318 318 317 317 316 316 316 316 316 316 314 313 313 313 316 319 319 319 319 320 318 317 317 318 318 319
335 333 331 329 326 324 324 324 323 321 322 322 318 320 320 318 317 318 320 320 319 318 317 317 316 316 315 314 313 313 313 316 318 318 319 318 320 318 317 317 317 317 317
328 329 328 325 319 314 315 322 325 321 324 320 318 318 317 320 319 321 321 319 319 319 319 317 316 315 314 314 313 313 315 315 315 316 318 319 321 319 317 317 316 316 316
322 322 321 318 315 316 319 324 327 327 325 323 322 320 322 323 321 322 322 319 320 320 318 317 315 314 316 316 313 312 313 313 313 313 317 317 321 320 318 316 316 315 315
320 320 319 316 316 315 313 315 325 325 322 322 319 322 323 323 320 324 322 320 318 317 315 315 315 315 315 314 313 312 311 310 310 310 312 316 317 320 318 316 315 314 313
319 317 316 316 315 315 316 322 319 318 317 314 314 317 318 322 324 323 322 321 319 318 317 316 315 314 313 312 311 311 310 309 308 307 308 310 315 316 318 316 314 313 312
315 315 315 315 316 317 313 314 312 311 316 315 317 320 321 322 325 323 321 320 319 317 317 316 314 313 312 311 310 309 307 306 305 305 306 304 304 309 315 316 314 312 310
315 314 315 315 313 313 317 316 314 318 319 321 323 324 325 324 324 322 321 319 318 318 317 316 314 312 311 310 308 306 304 303 304 305 305 308 302 305 312 314 314 312 309
320 319 318 318 320 320 320 322 320 321 321 321 326 327 327 326 324 322 321 319 318 316 315 313 312 311 310 307 305 304 303 303 304 304 305 306 307 306 311 312 310 309 308
323 321 321 321 323 325 325 322 319 322 322 324 327 327 326 324 323 321 320 318 316 315 314 312 311 310 307 305 304 303 303 302 302 303 304 305 304 305 309 309 308 305 303
321 322 321 323 325 327 327 323 322 324 325 327 327 327 324 322 321 320 319 317 315 314 312 311 309 307 305 304 303 303 302 302 301 301 303 304 303 304 305 305 305 302 299
322 323 323 325 327 329 327 324 322 326 328 329 328 327 324 322 320 320 318 315 313 312 311 310 308 305 303 303 302 303 302 301 301 301 300 299 300 300 300 300 299 298 295
324 325 325 326 328 330 327 323 323 326 327 328 328 326 324 321 319 318 316 314 312 312 310 309 306 304 304 303 305 306 303 302 301 300 300 299 298 298 298 297 297 297 297
324 325 326 328 329 330 327 324 325 327 327 327 325 323 322 319 318 316 314 313 312 311 309 307 304 305 305 304 306 304 307 304 302 300 299 298 298 297 297 296 296 296 295
325 326 326 328 330 331 329 325 325 327 325 323 321 320 318 317 316 314 313 312 311 309 307 305 304 305 307 304 303 302 305 306 303 301 300 299 298 297 297 296 296 295 295
328 327 327 328 330 331 330 326 325 324 326 323 321 319 316 314 314 313 312 311 309 307 305 303 305 306 305 306 303 301 301 301 301 302 301 299 299 298 297 296 296 295 294
329 328 329 329 330 331 330 328 327 326 327 325 320 317 315 313 312 311 309 307 306 305 303 304 305 304 305 301 302 303 301 300 300 300 301 299 298 297 297 296 296 295 294
330 329 330 330 330 331 330 327 326 326 327 323 319 317 314 313 311 307 306 305 305 303 304 306 303 304 300 301 301 300 299 300 300 299 299 298 298 297 296 295 295 295 294

GFSSE_925_thetae_039.txt.gz
Theta_e
341 340 342 344 343 339 337 335 335 333 329 326 322 318 318 319 320 319 325 331 332 334 337 336 330 330 329 327 318 315 317 319 317 316 322 325 325 327 327 328 329 331 330
341 339 341 344 343 340 337 335 333 331 327 323 315 315 318 318 318 321 327 329 331 332 336 334 328 327 323 314 313 315 319 320 322 322 321 325 325 325 324 323 326 329 330
340 339 342 343 342 341 339 335 334 329 324 315 312 316 319 318 320 325 327 329 333 333 334 331 328 326 318 314 313 316 319 320 320 321 322 322 324 326 325 325 325 325 325
339 338 342 342 342 341 337 336 331 326 316 311 316 318 318 319 322 325 328 331 333 333 333 331 328 321 315 315 315 318 321 321 322 323 323 323 322 326 327 326 325 325 324
337 337 341 340 340 339 336 333 328 320 317 316 319 319 320 322 325 329 332 334 333 332 333 331 323 316 315 314 314 319 320 322 322 322 322 322 322 324 325 323 324 325 325
336 335 337 339 339 337 333 329 325 318 315 318 321 323 323 324 326 328 329 332 332 333 333 328 316 316 315 314 313 316 319 319 322 322 322 321 321 322 322 323 324 324 324
334 335 333 336 334 332 329 326 322 319 322 325 324 327 325 324 325 324 324 324 323 324 322 316 316 316 315 314 313 314 317 318 319 321 321 320 320 321 320 320 321 322 321
338 337 332 332 331 328 327 325 320 319 322 327 327 328 324 324 324 321 317 316 316 317 317 316 316 316 315 314 314 315 317 319 319 321 322 320 320 319 319 319 319 320 320
337 337 332 330 330 331 328 324 323 327 329 328 328 327 322 322 320 318 316 315 315 316 316 316 316 316 315 314 314 314 317 319 321 320 320 319 319 318 318 318 318 318 318
336 334 332 330 330 329 328 327 327 327 329 327 326 324 321 321 318 317 317 316 316 316 316 316 317 316 314 314 314 314 316 317 319 319 320 318 319 318 317 317 317 317 316
331 332 330 329 327 327 324 325 327 326 326 323 322 322 320 321 322 324 322 318 317 317 317 317 317 315 314 314 313 314 315 315 315 316 320 319 321 319 317 317 317 316 316
325 325 328 326 324 320 320 318 321 326 326 324 323 319 321 321 324 324 320 319 319 319 318 317 315 316 318 317 315 314 314 314 313 314 317 319 321 319 318 316 316 316 315
322 322 321 321 317 318 318 321 323 326 325 323 319 324 324 323 322 320 320 320 319 319 317 316 317 319 318 317 315 314 313 312 311 310 310 313 318 320 318 317 315 315 314
320 319 318 318 317 317 320 321 321 324 325 324 324 323 323 321 324 323 322 322 321 321 319 320 319 318 317 315 314 313 311 309 308 308 309 305 316 318 319 317 316 314 312
318 317 317 316 313 312 312 313 314 314 322 321 319 318 319 320 325 324 324 323 322 322 321 320 318 317 315 314 313 310 308 307 307 307 309 307 305 311 317 317 316 313 311
316 316 315 315 314 315 314 313 315 317 316 316 318 320 321 323 326 325 324 323 322 322 321 320 318 315 314 313 311 307 306 306 307 307 307 310 304 302 311 317 315 313 310
315 315 315 314 316 316 314 315 316 318 318 319 316 322 324 324 326 326 325 323 322 321 320 318 316 314 313 310 308 306 306 306 306 306 307 307 310 305 309 314 314 311 310
315 315 314 314 313 315 316 319 319 320 321 320 321 326 327 327 327 326 324 323 322 320 319 317 315 313 311 309 308 307 306 305 305 305 306 307 306 308 306 310 309 307 305
318 319 317 318 316 319 322 323 320 320 321 319 322 327 328 327 327 326 324 323 321 320 318 316 314 312 310 308 308 307 307 306 305 303 305 306 305 305 307 305 307 306 305
322 320 319 321 322 324 322 323 322 321 323 322 328 328 328 327 325 325 324 322 321 319 317 314 312 310 308 309 308 307 308 306 304 304 304 303 303 303 302 304 302 301 300
323 321 322 324 325 325 325 323 321 321 323 327 327 328 328 326 325 325 324 321 319 317 316 313 312 309 309 309 310 311 309 306 305 304 303 302 301 301 300 300 300 299 298
324 323 322 323 325 327 327 323 321 322 323 325 327 328 328 327 324 324 322 320 318 317 314 313 310 309 311 309 311 311 313 309 306 304 303 302 302 301 300 299 299 299 298
325 326 326 326 327 329 328 325 323 324 326 327 327 327 327 326 323 322 320 319 317 316 314 312 310 310 312 311 309 309 310 310 308 306 304 303 301 301 300 300 298 298 297
326 326 327 328 328 329 329 328 324 325 328 328 328 326 325 323 322 320 318 317 316 315 313 311 309 311 311 311 310 308 306 305 306 306 305 303 302 301 301 300 299 298 298
327 327 327 328 328 329 329 329 327 326 327 327 327 326 324 320 318 317 317 317 315 313 310 309 308 310 308 309 308 307 306 305 304 304 305 304 303 301 299 299 298 298 297
328 329 328 328 328 328 332 330 329 328 327 328 328 325 322 320 318 317 316 314 313 309 308 308 309 308 309 308 304 305 304 304 304 304 304 302 301 301 300 299 298 297 297

GFSSE_925_thetae_042.txt.gz
Theta_e
341 343 343 343 337 335 334 333 331 329 326 323 321 320 320 320 321 328 333 334 336 333 331 331 330 328 326 321 320 320 319 319 319 318 325 325 325 325 325 328 330 331 332
341 345 342 343 337 336 334 333 331 328 325 322 319 317 316 317 322 330 331 333 336 334 329 329 328 325 316 317 319 320 322 323 323 322 324 326 326 326 326 323 325 329 330
339 343 343 342 337 337 335 333 330 327 324 318 315 314 315 319 325 328 330 332 335 331 330 329 326 316 314 317 320 320 320 322 324 325 323 325 327 326 326 327 325 325 325
341 343 343 343 339 339 337 333 330 326 319 315 313 315 317 323 326 328 330 332 332 331 330 328 324 314 314 319 321 321 322 323 324 323 322 322 324 328 326 325 326 325 325
340 342 342 342 340 339 336 333 329 323 317 315 315 317 322 325 327 328 330 332 332 331 329 327 316 314 314 318 320 321 321 322 322 322 321 322 322 323 324 325 325 325 325
339 341 340 341 340 339 336 332 327 320 318 316 319 323 327 328 330 332 332 332 333 331 328 320 315 314 313 314 318 318 318 321 323 321 321 321 321 321 322 322 323 323 323
338 338 340 340 339 338 335 330 325 321 321 321 325 326 328 330 331 333 332 332 332 327 318 316 315 314 314 314 315 318 319 320 322 321 320 319 320 320 320 320 320 320 321
336 336 338 338 339 336 332 326 322 323 322 326 327 326 326 326 327 329 328 327 324 317 316 316 315 314 315 315 313 318 320 320 322 321 319 319 319 319 319 319 319 319 319
331 335 335 336 336 333 329 327 325 324 327 329 328 326 324 322 321 320 319 318 318 316 316 316 315 315 315 314 316 318 319 320 321 320 318 317 318 318 318 318 318 317 317
335 332 332 330 332 330 329 328 327 327 328 329 326 324 324 321 317 315 316 317 316 316 316 316 316 315 315 314 316 316 316 317 319 320 317 318 318 318 317 317 317 316 316
331 328 327 328 326 325 325 328 328 327 325 327 323 322 320 318 317 320 316 316 316 316 317 317 317 316 316 314 314 314 314 315 317 320 312 319 319 318 317 317 316 316 315
328 329 330 330 326 327 324 323 325 324 327 325 322 321 321 322 326 322 317 316 317 317 317 317 318 317 317 316 315 314 313 312 314 317 311 314 320 319 317 317 316 315 315
323 328 328 328 325 325 326 322 317 324 326 321 321 325 322 324 324 319 320 319 318 317 317 317 317 319 318 316 314 313 312 310 310 312 308 311 320 320 318 317 316 315 315
321 320 321 322 320 316 320 322 323 323 322 321 325 323 322 323 319 319 320 320 320 319 318 319 319 318 316 314 313 311 309 308 307 310 308 306 313 320 319 317 316 314 314
319 318 317 318 320 322 322 323 321 320 321 323 323 322 321 322 322 320 322 322 321 321 320 320 319 317 315 314 312 309 307 307 307 308 309 308 305 314 319 317 316 314 313
317 316 316 315 316 317 318 320 318 319 319 319 316 314 317 321 325 324 325 323 323 322 321 320 318 316 314 313 310 307 306 306 307 307 310 309 307 302 311 318 316 314 312
316 314 314 313 314 315 315 313 313 314 314 313 313 318 322 322 325 326 324 324 323 322 321 320 318 314 313 311 308 307 306 306 306 306 307 310 309 303 304 315 315 313 311
315 316 316 316 313 313 314 312 312 312 313 314 314 321 318 322 326 325 326 324 323 322 320 319 316 314 313 310 308 307 307 306 306 305 307 307 310 308 304 310 312 311 308
316 316 317 316 313 313 313 314 313 316 320 320 318 318 324 322 327 326 325 324 323 321 320 318 315 314 311 309 309 308 308 307 306 304 306 306 305 307 309 307 307 309 308
316 316 315 313 313 314 314 316 320 321 319 317 315 323 325 326 328 327 326 324 322 321 319 317 315 312 311 310 310 308 308 308 306 304 304 305 303 305 304 305 303 301 302
319 316 316 314 314 317 319 323 323 321 322 322 323 327 328 326 327 326 325 323 322 321 318 317 313 311 308 310 310 311 310 309 306 305 304 304 302 302 301 301 301 301 300
321 319 321 319 321 320 322 319 322 320 320 321 324 326 327 327 326 325 325 323 322 320 318 315 313 312 310 311 311 311 311 308 307 306 304 303 302 302 301 300 300 300 299
321 321 321 322 323 324 325 324 323 322 321 324 325 325 327 327 326 325 325 323 321 319 317 314 313 311 311 311 310 310 309 308 307 306 305 304 302 302 301 300 300 299 298
325 323 322 323 324 325 326 328 324 323 324 326 327 327 326 327 327 325 323 322 319 318 316 314 312 310 311 312 311 310 309 306 305 303 305 304 303 302 301 301 300 299 299
326 326 325 324 325 326 326 328 328 324 326 326 327 326 327 326 326 324 322 320 318 317 315 315 313 310 312 311 310 309 309 307 306 304 302 304 304 303 302 301 300 299 299
326 327 328 328 328 328 329 328 329 325 327 328 327 327 327 325 323 322 319 317 318 316 315 311 309 310 310 309 310 306 306 305 305 305 303 304 303 303 302 300 299 298 298